ORBCOMM FM 22

Satellite information

Favourite Embed

Satellite Type and Status

PAYLOADIN ORBIT

Key statistics

Satellite ORBCOMM FM 22 at a glance.

Uptime

9839

Days in orbit

Revolutions

≈ 14.4

Per day

Orbit

LEO

Low Earth Orbit

Inclination

45.0

Latest

Satellite identification and parameters

Extended collection of information and parameters for ORBCOMM FM 22.

Object identification

Identified? True

Debris? False

Object name: ORBCOMM FM 22

International designator: 1998-053B

Object number (NORAD): 25476

Object ID (CCSDS): 25476

Country: ORBITAL TELECOMMUNICATIONS SATELLITE (GLOBALSTAR) (ORB)

Current information (Y/N): Y

RCS size: MEDIUM

Orbital parameters

Period: 100.101 minutes

Inclination: 45.0068 deg

SMA: 7141.451 km

Apoapsis: 767.315 km

Periapsis: 759.317 km

RAAN: 269.7691 deg

Eccentricy: 0.00055998

Argument of periapsis: 252.3313 deg

Mean anomaly: 107.6924 deg

Mean motion: 14.38543789 rev/day

Mean motion (dot): 0.00001461 rev/day2

B* drag term: 0.00051937035 1/REarth

Two-line elements (TLE)

Creation date: Aug. 31, 2025, 2:26 a.m.

Reference frame: TEME

Reference center: EARTH

Epoch: Aug. 30, 2025, 10:13 p.m. UTC

TLE line 0: 0 ORBCOMM FM 22

TLE line 1: 1 25476U 98053B 25242.92591147 .00001461 00000-0 51937-3 0 9992

TLE line 2: 2 25476 45.0068 269.7691 0005600 252.3313 107.6924 14.38543789408035

Live tracking on map

Real-time ground track for satellite ORBCOMM FM 22.

In-orbit conjunctions

There are no conjunctions computed for ORBCOMM FM 22, at the moment. Check back to stay up to date, as we update our databases every day.

Go to all conjunctions

Associated space launch

ORBCOMM FM 22 was lifted into orbit during the mission ‘Pegasus XL HAPS | Orbcomm-C1 - C8’, on board a Pegasus XL HAPS space rocket.

The launch took place on Sept. 23, 1998, 5:06 a.m. from Wallops Flight Facility.

For more information about the launch, click the button.

Launch to space Pegasus XL HAPS | Orbcomm-C1 - C8
Pegasus XL HAPS | Orbcomm-C1 - C8

Agency: N/A

Status: Launch Successful

Launch date: Sept. 23, 1998, 5:06 a.m. UTC

Rocket: Pegasus XL HAPS

Launch pad: Wallops Flight Facility

Location: Air launch to orbit

...

Latest news about this satellite

There are no fresh news available about this satellite. Check back as we update our databases every day.


Newsletter sign-up

Weekly statistics, charts and insights to help you stay on top of the space industry.